Location: Biltmore Gardens
(41.6070°N, 83.4666°W)
Time: 07:21:19
(UTC+00:00)

Vanguard 3 - Pass Details

Date: 19 April 2021
Orbit: 507 x 3262 km, 33.4° (Epoch: 17 May)

Event Time Altitude Azimuth Distance (km) Brightness Sun altitude
Exits shadow 09:14:44 24° 189° (S) 1,073 7.4 -16.6°
Maximum altitude 09:15:03 24° 180° (S) 1,064 7.5 -16.6°
Drops below altitude 10° 09:18:11 10° 124° (SE) 1,779 9.2 -16.1°
Sets 09:20:51 0° 110° (ESE) 2,825 10.5 -15.6°
